Location: *
(49.6619°S, 177.4603°W)
Time: 05:06:04
(UTC+00:00)

PSLV R/B - Pass Details

Date: 31 January 2023
Orbit: 594 x 698 km, 97.9° (Epoch: 01 April)

Event Time Altitude Azimuth Distance (km) Brightness Sun altitude
Exits shadow 10:47:25 53° 17° (NNE) 819 3.7 -20.9°
Maximum altitude 10:48:30 89° 104° (ESE) 671 3.6 -20.9°
Drops below altitude 10° 10:53:01 10° 193° (SSW) 2,066 7.4 -21.2°
Sets 10:55:13 0° 193° (SSW) 2,966 8.6 -21.3°
